Date String (YYYY-MM-DD hh:mm:ss) UTC,Instrument flags,Ambient pressure (hPa),Sample flow (lpm),Bypass flow (lpm),Sample temperature (°C),Ambient temperature (°C),ASC tube jacket temperature (°C),LED temperature (°C),Box temperature (°C),Sample RH (%),Span deviation,Mass concentration (μg/m³),Mass concentration (μg/m³),Mass concentration (μg/m³)
DateTimeUTC,F1_M11,P_M11,Q1_M11,Q2_M11,T1_M11,T2_M11,T3_M11,T4_M11,T5_M11,U1_M11,ZSPAN_M11,X0_M11,X2_M11,X1_M11
2022-06-01 12:00:00,,0832.7,5.00,0.00,25.5,24.5,00.0,34.3,27.4,21.7,0000.0,0000.95,0000.64,0000.54
2022-06-01 12:01:00,,0832.8,4.99,0.00,25.5,24.5,00.0,34.3,27.4,21.5,0000.0,0000.89,0000.62,0000.53
2022-06-01 12:02:00,,0832.7,5.00,0.00,25.5,24.5,00.0,34.4,27.4,21.5,0000.0,0000.87,0000.61,0000.53
2022-06-01 12:03:00,,0832.7,5.01,0.00,25.5,24.5,00.0,34.4,27.4,21.5,0000.0,0000.82,0000.59,0000.52
2022-06-01 12:04:00,,0832.7,4.99,0.00,25.5,24.5,00.0,34.4,27.4,21.6,0000.0,0000.76,0000.58,0000.53
2022-06-01 12:05:00,,0832.8,5.01,0.00,25.5,24.5,00.0,34.4,27.4,21.7,0000.0,0000.76,0000.58,0000.52
2022-06-01 12:06:00,,0832.8,5.00,0.00,25.5,24.5,00.0,34.4,27.4,21.7,0000.0,0000.72,0000.57,0000.52
2022-06-01 12:07:00,,0832.8,4.99,0.00,25.5,24.5,00.0,34.4,27.4,21.7,0000.0,0000.70,0000.56,0000.52
2022-06-01 12:08:00,,0832.8,5.00,0.00,25.5,24.5,00.0,34.4,27.4,21.7,0000.0,0000.70,0000.55,0000.52
2022-06-01 12:09:00,,0832.7,5.00,0.00,25.5,24.5,00.0,34.4,27.4,21.9,0000.0,0000.66,0000.54,0000.51
2022-06-01 12:10:00,,0832.7,5.01,0.00,25.5,24.5,00.0,34.4,27.4,21.8,0000.0,0000.69,0000.56,0000.52
2022-06-01 12:11:00,,0832.8,4.99,0.00,25.5,24.5,00.0,34.4,27.4,21.7,0000.0,0000.72,0000.57,0000.52
2022-06-01 12:12:00,,0832.8,5.01,0.00,25.5,24.5,00.0,34.4,27.5,21.7,0000.0,0000.75,0000.58,0000.52
2022-06-01 12:13:00,,0832.7,4.99,0.00,25.5,24.5,00.0,34.4,27.4,21.7,0000.0,0000.72,0000.58,0000.52
2022-06-01 12:14:00,,0832.8,5.00,0.00,25.5,24.5,00.0,34.4,27.4,21.7,0000.0,0000.75,0000.58,0000.51
2022-06-01 12:15:00,,0832.7,5.00,0.00,25.5,24.5,00.0,34.4,27.4,21.7,0000.0,0000.80,0000.60,0000.51
2022-06-01 12:16:00,,0832.7,5.01,0.00,25.5,24.5,00.0,34.4,27.5,21.8,0000.0,0000.80,0000.60,0000.52
2022-06-01 12:17:00,,0832.7,5.01,0.00,25.5,24.5,00.0,34.4,27.5,22.0,0000.0,0000.82,0000.61,0000.52
2022-06-01 12:18:00,,0832.8,5.00,0.00,25.5,24.5,00.0,34.4,27.5,22.0,0000.0,0000.89,0000.64,0000.52
2022-06-01 12:19:00,,0832.8,5.01,0.00,25.5,24.5,00.0,34.4,27.5,21.9,0000.0,0000.88,0000.64,0000.52
2022-06-01 12:20:00,,0832.8,5.00,0.00,25.5,24.5,00.0,34.4,27.5,21.9,0000.0,0000.88,0000.64,0000.53
2022-06-01 12:21:00,,0832.7,5.00,0.00,25.5,24.5,00.0,34.4,27.5,22.2,0000.0,0000.86,0000.64,0000.53
2022-06-01 12:22:00,,0832.7,5.00,0.00,25.5,24.5,00.0,34.4,27.5,22.5,0000.0,0000.87,0000.65,0000.54
2022-06-01 12:23:00,,0832.8,4.99,0.00,25.5,24.5,00.0,34.4,27.5,22.6,0000.0,0000.93,0000.68,0000.55
2022-06-01 12:24:00,,0832.8,5.00,0.00,25.5,24.5,00.0,34.4,27.5,22.6,0000.0,0000.98,0000.71,0000.56
2022-06-01 12:25:00,,0832.8,5.00,0.00,25.5,24.5,00.0,34.4,27.5,22.6,0000.0,0001.18,0000.75,0000.57
2022-06-01 12:26:00,,0832.8,5.01,0.00,25.5,24.5,00.0,34.4,27.5,22.6,0000.0,0001.16,0000.76,0000.59
2022-06-01 12:27:00,,0832.8,5.00,0.00,25.5,24.5,00.0,34.4,27.4,22.5,0000.0,0001.18,0000.77,0000.60
2022-06-01 12:28:00,,0832.8,5.00,0.00,25.5,24.5,00.0,34.4,27.5,22.4,0000.0,0001.22,0000.80,0000.62
2022-06-01 12:29:00,,0832.8,4.99,0.00,25.5,24.5,00.0,34.4,27.4,22.5,0000.0,0001.53,0000.82,0000.64
2022-06-01 12:30:00,,0832.8,5.00,0.00,25.5,24.5,00.0,34.4,27.4,22.5,0000.0,0001.64,0000.86,0000.67
2022-06-01 12:31:00,,0832.8,5.01,0.00,25.5,24.5,00.0,34.4,27.4,22.5,0000.0,0001.69,0000.89,0000.69
2022-06-01 12:32:00,,0832.8,4.99,0.00,25.5,24.5,00.0,34.4,27.4,22.5,0000.0,0001.75,0000.93,0000.70
2022-06-01 12:33:00,,0832.8,5.01,0.00,25.5,24.5,00.0,34.4,27.4,22.5,0000.0,0001.75,0000.93,0000.71
2022-06-01 12:34:00,,0832.8,5.00,0.00,25.5,24.5,00.0,34.4,27.4,22.5,0000.0,0001.72,0000.91,0000.71
2022-06-01 12:35:00,,0832.7,5.01,0.00,25.5,24.5,00.0,34.4,27.4,22.5,0000.0,0001.78,0000.91,0000.72
2022-06-01 12:36:00,,0832.8,4.99,0.00,25.5,24.5,00.0,34.4,27.4,22.3,0000.0,0001.65,0000.89,0000.71
2022-06-01 12:37:00,,0832.8,5.02,0.00,25.5,24.5,00.0,34.4,27.4,22.1,0000.0,0001.66,0000.88,0000.70
2022-06-01 12:38:00,,0832.8,5.00,0.00,25.5,24.5,00.0,34.4,27.5,22.0,0000.0,0001.71,0000.90,0000.69
2022-06-01 12:39:00,,0832.8,5.00,0.00,25.5,24.5,00.0,34.4,27.4,21.9,0000.0,0001.69,0000.88,0000.68
2022-06-01 12:40:00,,0832.8,5.00,0.00,25.5,24.5,00.0,34.4,27.5,21.9,0000.0,0001.41,0000.85,0000.66
2022-06-01 12:41:00,,0832.8,5.00,0.00,25.5,24.5,00.0,34.4,27.5,22.0,0000.0,0001.50,0000.86,0000.64
2022-06-01 12:42:00,,0832.8,5.01,0.00,25.5,24.5,00.0,34.4,27.5,22.1,0000.0,0001.64,0000.88,0000.63
2022-06-01 12:43:00,,0832.7,5.00,0.00,25.5,24.5,00.0,34.4,27.5,22.1,0000.0,0001.59,0000.85,0000.63
2022-06-01 12:44:00,,0832.7,5.00,0.00,25.5,24.5,00.0,34.4,27.5,22.1,0000.0,0001.57,0000.84,0000.63
2022-06-01 12:45:00,,0832.7,5.00,0.00,25.5,24.5,00.0,34.4,27.5,22.0,0000.0,0001.56,0000.83,0000.62
2022-06-01 12:46:00,,0832.8,4.99,0.00,25.5,24.5,00.0,34.4,27.5,22.0,0000.0,0001.44,0000.80,0000.61
2022-06-01 12:47:00,,0832.8,5.01,0.00,25.5,24.5,00.0,34.4,27.5,22.0,0000.0,0001.37,0000.78,0000.60
2022-06-01 12:48:00,,0832.8,5.00,0.00,25.5,24.5,00.0,34.4,27.5,22.0,0000.0,0001.34,0000.78,0000.61
2022-06-01 12:49:00,,0832.8,5.00,0.00,25.5,24.5,00.0,34.4,27.5,21.9,0000.0,0001.26,0000.75,0000.60
2022-06-01 12:50:00,,0832.8,4.99,0.00,25.5,24.5,00.0,34.4,27.5,21.7,0000.0,0001.35,0000.77,0000.60
2022-06-01 12:51:00,,0832.8,5.00,0.00,25.5,24.5,00.0,34.4,27.5,21.8,0000.0,0001.37,0000.76,0000.59
2022-06-01 12:52:00,,0832.8,5.00,0.00,25.5,24.5,00.0,34.4,27.5,21.9,0000.0,0001.17,0000.72,0000.59
2022-06-01 12:53:00,,0832.9,5.00,0.00,25.5,24.5,00.0,34.4,27.5,22.0,0000.0,0000.97,0000.67,0000.59
2022-06-01 12:54:00,,0832.8,5.00,0.00,25.5,24.5,00.0,34.4,27.5,22.0,0000.0,0001.01,0000.69,0000.58
2022-06-01 12:55:00,,0832.9,5.01,0.00,25.5,24.5,00.0,34.4,27.5,22.1,0000.0,0001.03,0000.69,0000.58
2022-06-01 12:56:00,,0832.8,4.99,0.00,25.5,24.5,00.0,34.4,27.5,22.1,0000.0,0001.04,0000.71,0000.58
2022-06-01 12:57:00,,0832.8,5.01,0.00,25.5,24.5,00.0,34.4,27.5,22.1,0000.0,0001.08,0000.73,0000.58
2022-06-01 12:58:00,,0832.9,4.99,0.00,25.5,24.4,00.0,34.5,27.5,22.1,0000.0,0001.09,0000.73,0000.58
2022-06-01 12:59:00,,0832.8,5.01,0.00,25.5,24.4,00.0,34.4,27.4,22.2,0000.0,0001.09,0000.73,0000.58
